When you browse on this site, cookies collect data to enhance your experience and personalize the content and advertising you see.
Visit our Privacy Policy to learn more. By continuing to use the site, you agree to this use of cookies and data.
  • En España
  • Lista de países
  • Para 7 días
  • Temperatura del agua
  • El tiempo en el mapa
  • Informadores
  • user-avatar
    Iniciar sesión

    Tiempo cada hora Sumgayit

    Hoy, 10 Abril, Viernes

    Tiempo Temperatura Precipitaciones Viento Presión Humedad
    00:00 +6°C° 0 mm 2 mps 741 mmHg 82%
    01:00 +6°C° 0 mm 2 mps 741 mmHg 82%
    02:00 +5°C° 0 mm 2 mps 740 mmHg 82%
    03:00 +5°C° 0 mm 2 mps 740 mmHg 81%
    04:00 +5°C° 0 mm 2 mps 740 mmHg 81%
    05:00 +6°C° 0 mm 2 mps 740 mmHg 80%
    06:00 +7°C° 0 mm 1 mps 740 mmHg 79%
    07:00 +8°C° 0 mm 1 mps 740 mmHg 71%
    08:00 +10°C° 0 mm 1 mps 740 mmHg 64%
    09:00 +11°C° 0 mm 1 mps 740 mmHg 55%
    10:00 +12°C° 0 mm 2 mps 740 mmHg 50%
    11:00 +13°C° 0 mm 2 mps 740 mmHg 44%
    12:00 +13°C° 0 mm 3 mps 740 mmHg 39%
    13:00 +13°C° 0 mm 3 mps 740 mmHg 40%
    14:00 +13°C° 0 mm 3 mps 739 mmHg 42%
    15:00 +12°C° 0 mm 3 mps 739 mmHg 43%
    16:00 +12°C° 0 mm 3 mps 739 mmHg 48%
    17:00 +11°C° 0 mm 3 mps 739 mmHg 52%
    18:00 +10°C° 0 mm 3 mps 739 mmHg 56%
    19:00 +10°C° 0 mm 2 mps 739 mmHg 59%
    20:00 +9°C° 0 mm 2 mps 739 mmHg 63%
    21:00 +9°C° 0 mm 1 mps 739 mmHg 66%
    22:00 +9°C° 0 mm 1 mps 739 mmHg 68%
    23:00 +9°C° 0 mm 1 mps 739 mmHg 70%

    Mañana, 11 Abril, Sábado

    Tiempo Temperatura Precipitaciones Viento Presión Humedad
    00:00 +9°C° 0 mm 1 mps 739 mmHg 72%
    01:00 +9°C° 0 mm 1 mps 738 mmHg 72%
    02:00 +9°C° 0 mm 1 mps 738 mmHg 71%
    03:00 +9°C° 0 mm 1 mps 738 mmHg 71%
    04:00 +9°C° 0 mm 1 mps 738 mmHg 71%
    05:00 +9°C° 0 mm 1 mps 738 mmHg 71%
    06:00 +9°C° 0 mm 1 mps 738 mmHg 71%
    07:00 +10°C° 0 mm 1 mps 738 mmHg 68%
    08:00 +11°C° 0 mm 1 mps 738 mmHg 64%
    09:00 +11°C° 0 mm 1 mps 738 mmHg 61%
    10:00 +13°C° 0 mm 1 mps 738 mmHg 57%
    11:00 +14°C° 0 mm 2 mps 739 mmHg 53%
    12:00 +15°C° 0 mm 2 mps 739 mmHg 50%
    13:00 +15°C° 0 mm 2 mps 738 mmHg 50%
    14:00 +13°C° 0 mm 3 mps 738 mmHg 51%
    15:00 +13°C° 0 mm 3 mps 738 mmHg 51%
    16:00 +13°C° 0 mm 3 mps 738 mmHg 54%
    17:00 +13°C° 0 mm 2 mps 738 mmHg 56%
    18:00 +12°C° 0 mm 2 mps 738 mmHg 59%
    19:00 +12°C° 0 mm 1 mps 738 mmHg 61%
    20:00 +11°C° 0 mm 1 mps 739 mmHg 64%
    21:00 +11°C° 0 mm 1 mps 739 mmHg 66%
    22:00 +11°C° 0 mm 1 mps 739 mmHg 68%
    23:00 +11°C° 0 mm 1 mps 739 mmHg 71%

    Pasado mañana, 12 Abril, Domingo

    Tiempo Temperatura Precipitaciones Viento Presión Humedad
    00:00 +10°C° 0 mm 1 mps 739 mmHg 73%
    01:00 +10°C° 0 mm 1 mps 739 mmHg 75%
    02:00 +10°C° 0 mm 1 mps 739 mmHg 77%
    03:00 +9°C° 0 mm 1 mps 739 mmHg 80%
    04:00 +10°C° 0 mm 1 mps 739 mmHg 79%
    05:00 +9°C° 0 mm 0 mps 740 mmHg 77%
    06:00 +9°C° 0 mm 0 mps 740 mmHg 76%
    07:00 +12°C° 0 mm 1 mps 741 mmHg 68%
    08:00 +12°C° 0 mm 3 mps 741 mmHg 59%
    09:00 +14°C° 0 mm 4 mps 741 mmHg 51%
    10:00 +14°C° 0 mm 5 mps 741 mmHg 52%
    11:00 +14°C° 0 mm 6 mps 741 mmHg 54%
    12:00 +14°C° 0 mm 7 mps 742 mmHg 55%
    13:00 +12°C° 0 mm 8 mps 742 mmHg 60%
    14:00 +11°C° 0 mm 8 mps 741 mmHg 64%
    15:00 +10°C° 0 mm 8 mps 741 mmHg 68%
    16:00 +9°C° 0 mm 8 mps 742 mmHg 71%
    17:00 +8°C° 0 mm 9 mps 742 mmHg 73%
    18:00 +7°C° 0 mm 9 mps 743 mmHg 76%
    19:00 +6°C° 0.1 mm 9 mps 744 mmHg 76%
    20:00 +6°C° 0.1 mm 10 mps 744 mmHg 77%
    21:00 +6°C° 0.1 mm 10 mps 745 mmHg 77%
    22:00 +6°C° 0.2 mm 9 mps 745 mmHg 73%
    23:00 +6°C° 0.2 mm 8 mps 746 mmHg 69%

    13 Abril, Lunes

    Tiempo Temperatura Precipitaciones Viento Presión Humedad
    00:00 +8°C° 0.2 mm 7 mps 746 mmHg 64%
    01:00 +6°C° 0 mm 7 mps 746 mmHg 66%
    02:00 +6°C° 0 mm 7 mps 746 mmHg 68%
    03:00 +6°C° 0 mm 7 mps 746 mmHg 70%
    04:00 +6°C° 0 mm 7 mps 747 mmHg 66%
    05:00 +6°C° 0 mm 7 mps 747 mmHg 62%
    06:00 +5°C° 0 mm 7 mps 747 mmHg 58%
    07:00 +6°C° 0 mm 7 mps 748 mmHg 50%
    08:00 +8°C° 0 mm 6 mps 748 mmHg 43%
    09:00 +8°C° 0 mm 6 mps 749 mmHg 35%
    10:00 +9°C° 0 mm 5 mps 748 mmHg 34%
    11:00 +10°C° 0 mm 4 mps 748 mmHg 32%
    12:00 +11°C° 0 mm 4 mps 748 mmHg 30%
    13:00 +11°C° 0 mm 4 mps 748 mmHg 31%
    14:00 +11°C° 0 mm 4 mps 748 mmHg 32%
    15:00 +10°C° 0 mm 5 mps 747 mmHg 34%
    16:00 +9°C° 0 mm 5 mps 747 mmHg 37%
    17:00 +10°C° 0 mm 4 mps 747 mmHg 41%
    18:00 +8°C° 0 mm 4 mps 747 mmHg 45%
    19:00 +7°C° 0 mm 4 mps 747 mmHg 49%
    20:00 +8°C° 0 mm 3 mps 747 mmHg 53%
    21:00 +7°C° 0 mm 2 mps 748 mmHg 57%
    22:00 +7°C° 0 mm 2 mps 747 mmHg 59%
    23:00 +7°C° 0 mm 2 mps 747 mmHg 62%

    14 Abril, Martes

    Tiempo Temperatura Precipitaciones Viento Presión Humedad
    00:00 +7°C° 0 mm 2 mps 746 mmHg 64%
    01:00 +6°C° 0 mm 2 mps 746 mmHg 65%
    02:00 +6°C° 0 mm 2 mps 746 mmHg 65%
    03:00 +6°C° 0 mm 2 mps 745 mmHg 66%
    04:00 +6°C° 0 mm 2 mps 745 mmHg 67%
    05:00 +6°C° 0 mm 2 mps 745 mmHg 68%
    06:00 +7°C° 0 mm 3 mps 745 mmHg 69%
    07:00 +7°C° 0 mm 4 mps 745 mmHg 68%
    08:00 +8°C° 0 mm 5 mps 745 mmHg 66%
    09:00 +9°C° 0 mm 5 mps 745 mmHg 65%
    10:00 +10°C° 0 mm 6 mps 744 mmHg 63%
    11:00 +11°C° 0 mm 7 mps 744 mmHg 60%
    12:00 +12°C° 0 mm 7 mps 743 mmHg 58%
    13:00 +12°C° 0 mm 8 mps 743 mmHg 58%
    14:00 +12°C° 0 mm 8 mps 743 mmHg 59%
    15:00 +12°C° 0 mm 8 mps 742 mmHg 59%
    16:00 +11°C° 0 mm 8 mps 742 mmHg 62%
    17:00 +11°C° 0 mm 8 mps 742 mmHg 65%
    18:00 +10°C° 0 mm 8 mps 741 mmHg 68%
    19:00 +9°C° 0 mm 7 mps 741 mmHg 71%
    20:00 +9°C° 0 mm 6 mps 742 mmHg 74%
    21:00 +8°C° 0 mm 5 mps 742 mmHg 77%
    22:00 +8°C° 0 mm 5 mps 741 mmHg 77%
    23:00 +8°C° 0 mm 4 mps 741 mmHg 78%

    15 Abril, Miércoles

    Tiempo Temperatura Precipitaciones Viento Presión Humedad
    00:00 +7°C° 0 mm 4 mps 740 mmHg 79%
    01:00 +7°C° 0 mm 4 mps 740 mmHg 80%
    02:00 +7°C° 0 mm 4 mps 740 mmHg 81%
    03:00 +8°C° 0 mm 3 mps 739 mmHg 82%
    04:00 +7°C° 0 mm 4 mps 739 mmHg 82%
    05:00 +7°C° 0 mm 4 mps 739 mmHg 82%
    06:00 +7°C° 0 mm 4 mps 739 mmHg 82%
    07:00 +9°C° 0 mm 5 mps 738 mmHg 76%
    08:00 +11°C° 0 mm 6 mps 738 mmHg 69%
    09:00 +12°C° 0 mm 7 mps 738 mmHg 62%
    10:00 +13°C° 0 mm 8 mps 738 mmHg 57%
    11:00 +16°C° 0 mm 8 mps 738 mmHg 53%
    12:00 +17°C° 0 mm 9 mps 737 mmHg 48%
    13:00 +17°C° 0 mm 9 mps 737 mmHg 48%
    14:00 +17°C° 0 mm 8 mps 736 mmHg 47%
    15:00 +18°C° 0 mm 8 mps 736 mmHg 47%
    16:00 +17°C° 0 mm 8 mps 736 mmHg 52%
    17:00 +15°C° 0 mm 8 mps 735 mmHg 57%
    18:00 +13°C° 0 mm 8 mps 735 mmHg 62%
    19:00 +14°C° 0 mm 7 mps 735 mmHg 67%
    20:00 +13°C° 0 mm 6 mps 736 mmHg 71%
    21:00 +12°C° 0 mm 5 mps 736 mmHg 76%
    22:00 +12°C° 0 mm 4 mps 736 mmHg 77%
    23:00 +11°C° 0 mm 3 mps 736 mmHg 78%
    Mostrar más